星链-35195(STARLINK-35195)

导读 | 豆包AI

STARLINK-35195是美国SpaceX星链星座的卫星,于2025年9月13日发射。星链项目旨在构建全球卫星互联网,为偏远地区、地面网络覆盖盲区提供高速宽带服务,该卫星是星链低轨卫星组网持续扩张的一员,助力完善全球卫星通信覆盖网络,进一步拓展星链星座服务范围与通信能力。

Basic Information
目录编号:
65606
目录名称:
STARLINK-35195
国际标识:
2025-207Q
轨道中心:
EARTH
卫星名称:
星链-35195
卫星全名:
星链-35195(STARLINK-35195)
卫星状态:
在轨 (已飞行228 天)
发射日期:
2025-09-13 UTC
国别 :
美国 (US)
星等 :
--
Orbit Information
数据来源 国际轨道数据 AOE轨道数据
星历时间 2026-04-29T12:16:57+0800
5小时前
查看轨道信息
2026-04-24T00:00:00+0800
5天前
查看轨道信息
半长轴 6927.671km 6927.651km
偏心率 0.0000764 0.0002508
轨道倾角 97.563° 97.583°
近地点辐角 346.341° 173.449°
升交点赤经 188.484° 183.078°
平近点角 13.780° 209.866°
近地点 549.004km 547.776km
远地点 550.064km 551.252km
周期 95.640分钟 95.640分钟
每日圈数 15.056428 15.056492
Detailed Information
固有亮度:
5
最大亮度:
2.5
卫星平台:
Starlink V1.0
覆盖范围:
全球
运营商:
太空探索技术公司
运营商所在国:
美国
制造商(研发单位):
太空探索技术公司
制造商所在国:
美国
使用方式:
暂无
Satellite Introduction
Starlink 计划是 SpaceX 推出的全球卫星互联网项目,通过发射低轨道卫星,为全球尤其是偏远地区提供高速、低延迟的互联网服务。自 2019 年起,Starlink 已部署数千颗卫星,旨在缩小全球数字鸿沟,推动互联网普及。该项目还为军事、航空等行业提供通信支持,带来广泛经济效益。
2D Orbit Map
3D Orbit Map
Orbit Altitude Analysis Chart
Orbit Inclination Analysis Chart
Orbit Comprehensive Analysis Chart
View Comprehensive Chart